DW2213 Weather Reports


Display with metric or nautical units.
time (UTC)temp
F
wind
direction
speed
MPH
gust
MPH
rain 1hr
in
rain 24hr
in
rain mn
in
humidity
%
barometer
mb
20260503225305 66 148 0.0 0.0 0.00 0.06 0.00 80 1012.7
20260503224804 66 148 0.0 0.0 0.00 0.06 0.00 80 1012.6
20260503224304 66 148 0.0 0.0 0.00 0.06 0.00 80 1012.6
20260503223804 66 148 0.0 0.0 0.00 0.06 0.00 80 1012.6
20260503223304 66 148 0.0 0.0 0.00 0.06 0.00 80 1012.6
20260503222804 66 148 0.0 0.0 0.00 0.06 0.00 80 1012.6
20260503222304 66 148 0.0 5.0 0.00 0.06 0.00 80 1012.6
20260503221804 66 147 0.0 2.0 0.00 0.06 0.00 80 1012.6
20260503221304 66 147 0.0 3.0 0.00 0.06 0.00 80 1012.7
20260503220818 66 148 2.0 3.0 0.00 0.06 0.00 80 1012.6
20260503220305 66 147 1.0 3.0 0.00 0.06 0.00 80 1012.7
20260503215804 66 148 0.0 2.0 0.00 0.06 0.06 80 1012.4
20260503215304 66 148 2.0 5.0 0.00 0.06 0.06 80 1012.5
20260503214804 66 148 2.0 3.0 0.00 0.06 0.06 80 1012.6
20260503214304 66 147 0.0 2.0 0.00 0.06 0.06 80 1012.6
20260503213804 66 147 0.0 0.0 0.00 0.06 0.06 79 1012.7
20260503213304 66 147 0.0 0.0 0.00 0.06 0.06 79 1012.8
20260503212804 66 147 0.0 1.0 0.00 0.06 0.06 79 1013.1
20260503212305 66 147 1.0 2.0 0.00 0.06 0.06 79 1013.1
20260503211804 66 147 2.0 3.0 0.00 0.06 0.06 79 1013.0
20260503210804 66 147 2.0 5.0 0.00 0.06 0.06 78 1013.0
20260503210304 66 134 3.0 5.0 0.00 0.06 0.06 79 1013.0
20260503205804 66 146 2.0 3.0 0.00 0.06 0.06 78 1012.9
20260503204804 67 146 3.0 5.0 0.00 0.06 0.06 78 1012.7
20260503204304 67 146 3.0 5.0 0.00 0.06 0.06 78 1012.7
20260503203804 66 146 3.0 5.0 0.00 0.06 0.06 78 1012.6
20260503203304 66 146 2.0 5.0 0.00 0.06 0.06 78 1012.5
20260503202804 66 146 2.0 3.0 0.00 0.06 0.06 78 1012.5
20260503202304 66 146 1.0 3.0 0.00 0.06 0.06 78 1012.4
20260503201804 66 146 1.0 2.0 0.00 0.06 0.06 78 1012.3
20260503201304 66 146 1.0 3.0 0.00 0.06 0.06 78 1012.3
20260503200803 66 146 1.0 3.0 0.00 0.06 0.06 77 1012.2
20260503195804 66 147 1.0 3.0 0.00 0.06 0.06 77 1012.1
20260503195304 66 146 2.0 5.0 0.00 0.06 0.06 77 1012.0
20260503194803 66 146 0.0 0.0 0.00 0.06 0.06 77 1011.8
20260503193803 66 146 2.0 5.0 0.00 0.06 0.06 77 1011.6
20260503193304 66 146 2.0 3.0 0.00 0.06 0.06 77 1011.6
20260503192804 66 143 5.0 7.0 0.00 0.06 0.06 77 1011.5
20260503192305 66 143 4.0 6.0 0.00 0.06 0.06 77 1011.3
20260503191804 67 106 6.0 8.0 0.00 0.06 0.06 78 1011.2
20260503191304 67 104 5.0 8.0 0.00 0.06 0.06 79 1011.3
20260503190804 67 125 5.0 8.0 0.00 0.06 0.06 79 1011.4
20260503190303 67 125 4.0 7.0 0.00 0.06 0.06 78 1011.4
20260503185804 67 155 2.0 5.0 0.00 0.06 0.06 78 1011.7
20260503184804 67 155 4.0 6.0 0.00 0.06 0.06 78 1011.9
20260503184303 67 155 3.0 7.0 0.00 0.06 0.06 78 1011.7
20260503183803 67 143 5.0 7.0 0.00 0.06 0.06 78 1011.5
20260503183304 68 122 4.0 8.0 0.00 0.06 0.06 78 1011.5
20260503182804 68 112 5.0 8.0 0.00 0.06 0.06 78 1011.5
20260503182305 68 149 5.0 7.0 0.00 0.06 0.06 78 1011.4
20260503181804 68 149 5.0 7.0 0.00 0.06 0.06 77 1011.4
20260503181303 68 147 5.0 8.0 0.00 0.06 0.06 77 1011.5
20260503180804 68 119 5.0 7.0 0.00 0.06 0.06 77 1011.4
20260503175804 68 135 3.0 7.0 0.00 0.06 0.06 77 1011.2
20260503174804 68 102 5.0 6.0 0.00 0.06 0.06 76 1011.3
20260503174304 68 90 5.0 6.0 0.00 0.06 0.06 76 1011.3
20260503173804 69 115 4.0 7.0 0.00 0.06 0.06 75 1011.2
20260503173303 69 73 3.0 8.0 0.00 0.06 0.06 74 1011.4
20260503172305 69 108 5.0 9.0 0.00 0.06 0.06 73 1011.4
20260503140305 71 31 6.0 9.0 0.00 0.06 0.06 69 1012.5
20260503131305 72 30 5.0 10.0 0.00 0.06 0.06 65 1012.7
20260503130804 72 59 5.0 8.0 0.00 0.06 0.06 64 1012.7
20260503110805 70 94 5.0 8.0 0.00 0.06 0.06 74 1013.7
20260503110305 70 115 5.0 7.0 0.00 0.06 0.06 75 1013.7
20260503081304 65 126 2.0 3.0 0.03 0.07 0.06 88 1014.6
20260503080805 65 125 1.0 3.0 0.02 0.06 0.05 88 1014.6
20260503080304 65 125 1.0 5.0 0.02 0.06 0.05 88 1014.4
20260503072804 66 130 2.0 5.0 0.00 0.04 0.03 86 1014.3
20260503071804 65 108 2.0 5.0 0.00 0.04 0.03 86 1014.1
20260503070805 65 105 1.0 2.0 0.00 0.04 0.03 87 1014.1
20260503060304 65 105 2.0 5.0 0.00 0.04 0.03 87 1013.7
20260503054804 64 103 1.0 3.0 0.00 0.04 0.03 87 1013.9
20260503054304 64 103 1.0 3.0 0.00 0.04 0.03 87 1013.8
20260503053804 64 103 1.0 3.0 0.00 0.04 0.03 87 1013.8
20260503051804 64 103 2.0 5.0 0.00 0.04 0.03 87 1013.6
20260503051304 64 91 1.0 5.0 0.00 0.04 0.03 87 1013.5
20260503050805 65 98 0.0 1.0 0.00 0.04 0.03 87 1013.4
20260503050304 65 98 0.0 0.0 0.00 0.04 0.03 87 1013.5
20260503045804 65 98 0.0 1.0 0.00 0.04 0.03 87 1013.6
20260503045305 65 98 0.0 0.0 0.00 0.04 0.03 86 1013.6
20260503044804 65 98 1.0 2.0 0.00 0.04 0.03 86 1013.7
20260503044304 65 98 1.0 3.0 0.00 0.04 0.03 86 1013.7
20260503043804 65 98 1.0 3.0 0.00 0.04 0.03 86 1013.6
20260503043305 65 98 1.0 3.0 0.00 0.04 0.03 86 1013.6
20260503042804 65 99 1.0 2.0 0.00 0.04 0.03 86 1013.6
20260503042305 65 99 2.0 5.0 0.00 0.04 0.03 86 1013.7
20260503041805 65 98 1.0 2.0 0.00 0.04 0.03 86 1013.7
20260503041305 65 98 1.0 3.0 0.00 0.04 0.03 86 1013.6
20260503040804 65 98 2.0 5.0 0.00 0.04 0.03 87 1013.5
20260503035804 64 98 2.0 3.0 0.00 0.04 0.03 88 1013.5
20260503035305 64 98 1.0 2.0 0.00 0.04 0.03 88 1013.5
20260503034804 64 99 1.0 2.0 0.00 0.04 0.03 89 1013.5
20260503034304 64 98 1.0 3.0 0.00 0.04 0.03 89 1013.6
20260503033305 64 21 1.0 3.0 0.00 0.04 0.03 89 1013.6
20260503032804 65 31 0.0 0.0 0.00 0.04 0.03 89 1013.5
20260503032304 64 31 1.0 2.0 0.00 0.04 0.03 90 1013.5
20260503031804 64 29 0.0 0.0 0.00 0.04 0.03 90 1013.6
20260503030804 64 0 0.0 3.0 0.00 0.04 0.03 90 1013.6
20260503025804 64 8 2.0 3.0 0.00 0.04 0.03 90 1013.5
20260503025305 64 29 1.0 2.0 0.00 0.04 0.03 90 1013.5
20260503024805 64 9 2.0 3.0 0.00 0.04 0.03 90 1013.7
20260503024304 64 29 0.0 2.0 0.00 0.04 0.03 90 1013.8
20260503023804 64 29 1.0 2.0 0.00 0.04 0.03 90 1014.0
20260503023304 64 29 0.0 0.0 0.00 0.04 0.03 90 1014.1
20260503022804 64 30 0.0 0.0 0.00 0.04 0.03 91 1014.2
20260503022305 64 30 1.0 2.0 0.00 0.04 0.03 90 1014.3
20260503021804 64 32 1.0 2.0 0.00 0.04 0.03 91 1014.3
20260503021304 64 32 0.0 1.0 0.00 0.04 0.03 91 1014.3
20260503020804 64 33 0.0 0.0 0.00 0.04 0.03 91 1014.4
20260503020304 64 34 1.0 2.0 0.00 0.04 0.03 91 1014.4
20260503015804 64 21 2.0 3.0 0.00 0.04 0.03 90 1014.4
20260503014804 64 10 3.0 3.0 0.00 0.04 0.03 90 1014.4
20260503014304 64 24 2.0 3.0 0.00 0.04 0.03 91 1014.5
20260503013804 64 25 2.0 3.0 0.00 0.04 0.03 90 1014.5
20260503013304 64 26 1.0 3.0 0.00 0.04 0.03 90 1014.5
20260503012804 64 25 2.0 3.0 0.00 0.04 0.03 90 1014.5
20260503012305 64 16 2.0 3.0 0.01 0.04 0.03 90 1014.6
20260503011805 64 26 1.0 3.0 0.01 0.04 0.03 90 1014.8
20260503011305 64 24 0.0 2.0 0.01 0.04 0.03 90 1014.8
20260503010804 64 28 1.0 3.0 0.01 0.04 0.03 90 1015.0
20260503010304 64 29 1.0 3.0 0.02 0.04 0.03 90 1014.9
20260503005304 65 26 2.0 3.0 0.02 0.04 0.03 90 1015.1
20260503004804 64 28 0.0 1.0 0.02 0.04 0.03 90 1015.1
20260503003804 64 26 0.0 0.0 0.03 0.04 0.03 89 1015.1
20260503003305 64 24 0.0 2.0 0.03 0.04 0.03 89 1015.2
20260503002804 64 28 0.0 2.0 0.03 0.04 0.03 89 1015.3
20260503002305 64 25 0.0 3.0 0.02 0.03 0.02 89 1015.4
20260503001804 65 24 2.0 3.0 0.02 0.03 0.02 89 1015.6
20260503001305 65 10 3.0 6.0 0.02 0.03 0.02 88 1015.6
20260503000804 65 48 2.0 6.0 0.02 0.03 0.02 89 1015.5
20260503000304 65 51 1.0 6.0 0.01 0.02 0.01 89 1015.6
20260502235804 65 67 3.0 6.0 0.01 0.02 0.01 88 1015.8
20260502235305 66 85 5.0 7.0 0.01 0.02 0.01 88 1015.8
20260502234804 66 103 3.0 7.0 0.01 0.02 0.01 88 1015.9
20260502234304 66 17 4.0 8.0 0.00 0.01 0.00 88 1016.0
20260502233804 66 58 3.0 5.0 0.00 0.01 0.00 88 1016.0
20260502233304 66 44 3.0 6.0 0.00 0.01 0.00 88 1016.0
20260502232804 66 56 3.0 5.0 0.00 0.01 0.00 88 1015.9
20260502231804 66 42 2.0 5.0 0.00 0.01 0.00 87 1015.9
20260502231304 66 67 2.0 3.0 0.00 0.01 0.00 87 1015.9
20260502230803 66 64 2.0 6.0 0.00 0.01 0.00 87 1015.9
20260502230304 66 92 1.0 5.0 0.00 0.01 0.00 86 1016.0
20260502225804 66 88 2.0 7.0 0.00 0.01 0.00 86 1015.9